Location: Atherton
(17.2661°S, 145.4859°E)
Time: 04:26:16
(UTC+10:00)

Explorer 11/Cluster Stage 4 - Pass Details

Date: 24 June 2025
Orbit: 463 x 1188 km, 28.8° (Epoch: 19 July)

Event Time Altitude Azimuth Distance (km) Brightness Sun altitude
Rises 19:59:12 0° 266° (W) 3,049 10.6 -28.9°
Reaches altitude 10° 20:02:36 10° 287° (WNW) 1,975 9.6 -29.7°
Maximum altitude 20:05:20 16° 324° (NW) 1,528 8.6 -30.3°
Enters shadow 20:06:28 14° 344° (NNW) 1,559 8.4 -30.6°
